Regional Weather Roundup
Issued by NWS

Home | Current Version | Previous Version | Graphics & Text | Print | Product List | Glossary On
Versions: 1 2 3 4 5 6 7 8 9 10 11 12 13 14 15 16 17 18 19 20 21 22 23 24 25 26 27 28 29 30 31 32 33 34 35 36 37 38 39 40 41 42 43 44 45 46 47 48 49 50
000
ASUS45 KPSR 292100
RWRAZ

PRELIMINARY ARIZONA REGIONAL HOURLY WEATHER ROUNDUP
NATIONAL WEATHER SERVICE PHOENIX AZ
200 PM MST THU JAN 29 2015

NOTE: FAIR INDICATES FEW OR NO CLOUDS BELOW 12,000 FEET WITH NO
SIGNIFICANT WEATHER AND/OR OBSTRUCTIONS TO VISIBILITY.

AZZ001>003-036-292200-
NORTHWEST ARIZONA

CITY           SKY/WX    TMP DP  RH WIND       PRES   REMARKS
KINGMAN        FAIR      60  40  47 NE7       30.12F
$$

AZZ004>008-015-016-018-292200-
NORTH CENTRAL ARIZONA

CITY           SKY/WX    TMP DP  RH WIND       PRES   REMARKS
GRAND CANYON   PTSUNNY   49  32  52 E13       30.22F
PRESCOTT       FAIR      61  29  29 SE9       30.14F
FLAGSTAFF      NOT AVBL
PAYSON         PTSUNNY   59  34  38 S8        30.18F
$$

AZZ009>014-017-292200-
NORTHEAST ARIZONA

CITY           SKY/WX    TMP DP  RH WIND       PRES   REMARKS
WINSLOW        NOT AVBL
SAINT JOHNS    FAIR      59  32  36 CALM      30.19F
WINDOW ROCK    FAIR      51  28  41 VRB6      30.28F
SHOW LOW       FAIR      50  32  50 N6        30.25F
$$

AZZ023-292200-
GREATER PHOENIX AREA

CITY           SKY/WX    TMP DP  RH WIND       PRES   REMARKS
PHOENIX        CLOUDY    69  44  40 CALM      30.00F
LUKE AFB       NOT AVBL
DEER VALLEY    CLOUDY    68  45  43 NW5       30.01F
SCOTTSDALE     CLOUDY    69  46  43 CALM      30.03F
MESA-FALCON    CLOUDY    68  46  45 N8        30.00F
MESA-GATEWAY   CLOUDY    68  48  49 VRB5      30.04F
CHANDLER       CLOUDY    70  50  49 VRB5      30.02F
$$

AZZ027-028-292200-
SOUTHWEST MARICOPA COUNTY AND PINAL COUNTY

CITY           SKY/WX    TMP DP  RH WIND       PRES   REMARKS
CASA GRANDE    PTSUNNY   64  52  63 CALM      30.04F
GILA BEND      MOCLDY    66  52  62 S2        30.02F
$$

AZZ503-504-507>509-292200-
SOUTHEAST ARIZONA

CITY           SKY/WX    TMP DP  RH WIND       PRES   REMARKS
TUCSON         CLOUDY    66  50  56 W7        30.08F
DAVIS-MONTHAN  DRIZZLE   67  48  49 W5        30.06F
RYAN FIELD       N/A     66  52  59 CALM      30.08F
NOGALES        CLOUDY    71  31  22 SE7       30.08F
SIERRA VISTA   CLOUDY    64  39  39 SE10      30.14F
SAFFORD        LGT RAIN  60  42  51 SE5       30.13F
$$

AZZ020-021-025-026-031-292200-
SOUTHWEST ARIZONA

CITY           SKY/WX    TMP DP  RH WIND       PRES   REMARKS
YUMA           NOT AVBL
$$

CAZ031-033-041-043-047-048-061-292200-
SOUTHERN CALIFORNIA

CITY           SKY/WX    TMP DP  RH WIND       PRES   REMARKS
DOWNTOWN L.A.  FAIR      74  40  29 CALM      30.00F
L.A. AIRPORT   PTSUNNY   73  44  35 CALM      30.00F
SAN DIEGO      CLOUDY    68  49  50 S6        30.02F
BURBANK        FAIR      72  42  34 CALM      30.00F
ONTARIO        CLOUDY    75  34  22 SE8       30.00F
RIVERSIDE      PTSUNNY   74  40  29 E5        30.02F
PALM SPRINGS   CLOUDY    75  40  28 NW7       30.03F
EL CENTRO NAS  CLOUDY    72  47  40 N6        30.00F
IMPERIAL       FAIR      71  48  43 NW7       30.00F
BLYTHE         FAIR      67  50  54 CALM      30.02F
$$

NVZ020-UTZ003-292200-
SOUTHERN NEVADA-UTAH

CITY           SKY/WX    TMP DP  RH WIND       PRES   REMARKS
LAS VEGAS      NOT AVBL
SALT LAKE CITY PTSUNNY   44  35  70 NW7       30.29F
$$

NMZ009-TXZ055-292200-
NEW MEXICO-WEST TEXAS

CITY           SKY/WX    TMP DP  RH WIND       PRES   REMARKS
ALBUQUERQUE    CLOUDY    52  27  38 E24G31    30.38F
EL PASO        PTSUNNY   60  32  34 E17G23    30.27F
$$


........................KEY........................
SKY/WX - SKY CONDITION/WEATHER
TMP    - TEMPERATURE IN FAHRENHEIT
DP     - DEW POINT IN FAHRENHEIT
RH     - RELATIVE HUMIDITY IN PERCENT
WIND   - DIRECTION AND SPEED IN MILES PER HOUR (MPH)
VRB    - VARIABLE WIND DIRECTION
PRES   - MEAN SEA LEVEL PRESSURE IN INCHES OF MERCURY
         F - FALLING PRESSURE   R - RISING PRESSURE
         S - STEADY PRESSURE
VSB    - VISIBILITY IN MILES
HX     - HEAT INDEX IN FAHRENHEIT
WCI    - WIND CHILL INDEX IN FAHRENHEIT
TC     - TEMPERATURE IN CELSIUS WHICH IS ALSO KNOWN AS
         TEMPERATURE IN CENTIGRADE
AFB    - AIR FORCE BASE
         LUKE AFB IS LUKE AIR FORCE BASE
         DAVIS-MONTHAN IS DAVIS-MONTHAN AIR FORCE BASE
NAS    - NAVAL AIR STATION
         EL CENTRO NAS IS EL CENTRO NAVAL AIR STATION
N/A    - NOT AVAILABLE


USA.gov is the U.S. government's official web portal to all federal, state and local government web resources and services.